75.2670;-176.5020;1; 393.608; 224.393;1968.05.08 12:00:00;  -7.3;1011.3;  12.0; 110.0;    .000;    .000;   0.000; 90;
75.2907;-176.5182;2; 393.351; 224.454;1968.05.08 18:00:00;  -8.6;1010.5;   8.0; 140.0;   2.680;    .250;   0.447;350;
75.3145;-176.5344;2; 393.094; 224.515;1968.05.09 00:00:00;  -4.7;1008.0;   9.0; 110.0;   5.361;    .500;   0.447;350;
75.3383;-176.5507;2; 392.837; 224.576;1968.05.09 06:00:00;  -6.4;1004.3;  10.0;  90.0;   8.042;    .750;   0.447;350;
75.3620;-176.5671;2; 392.580; 224.637;1968.05.09 12:00:00;  -4.0;1000.2;   7.0;  90.0;  10.723;   1.000;   0.447;350;
75.3858;-176.5835;2; 392.322; 224.698;1968.05.09 18:00:00;  -2.9; 997.4;   9.0; 140.0;  13.403;   1.250;   0.447;350;
75.4095;-176.5999;2; 392.065; 224.758;1968.05.10 00:00:00;  -3.3; 998.6;   8.0; 140.0;  16.084;   1.500;   0.447;350;
75.4333;-176.6164;2; 391.808; 224.819;1968.05.10 06:00:00;  -4.9;1001.5;   6.0; 270.0;  18.764;   1.750;   0.447;350;
75.4570;-176.6330;2; 391.551; 224.880;1968.05.10 12:00:00; -12.1;1006.4;   1.0; 180.0;  21.446;   2.000;   0.447;350;
75.4722;-176.7086;2; 391.397; 225.097;1968.05.10 18:00:00;  -4.2;1008.1;   4.0; 180.0;  24.149;   2.250;   0.451;309;
75.4874;-176.7843;2; 391.242; 225.315;1968.05.11 00:00:00;  -6.7;1011.8;   1.0; 320.0;  26.852;   2.500;   0.451;309;
75.5026;-176.8602;2; 391.088; 225.532;1968.05.11 06:00:00;  -5.5;1011.4;   5.0; 140.0;  29.557;   2.750;   0.451;309;
75.5177;-176.9362;2; 390.934; 225.749;1968.05.11 12:00:00;  -7.6;1010.1;   7.0; 110.0;  32.260;   3.000;   0.450;308;
75.5328;-177.0124;2; 390.779; 225.966;1968.05.11 18:00:00;  -5.3;1003.9;   9.0;  90.0;  34.964;   3.250;   0.451;308;
75.5479;-177.0888;2; 390.625; 226.183;1968.05.12 00:00:00;  -4.7; 997.5;  11.0;  70.0;  37.667;   3.500;   0.450;308;
75.5630;-177.1653;2; 390.471; 226.400;1968.05.12 06:00:00;  -3.6; 999.6;   8.0; 360.0;  40.371;   3.750;   0.451;308;
75.5780;-177.2420;2; 390.316; 226.618;1968.05.12 12:00:00;  -4.2;1005.9;   4.0; 340.0;  43.075;   4.000;   0.451;308;
75.5873;-177.3484;2; 390.228; 226.912;1968.05.12 18:00:00;  -4.8;1012.0;   5.0; 290.0;  46.197;   4.250;   0.520;289;
75.5965;-177.4549;2; 390.140; 227.207;1968.05.13 00:00:00;  -5.4;1017.2;   7.0; 270.0;  49.319;   4.500;   0.520;289;
75.6058;-177.5616;2; 390.052; 227.502;1968.05.13 06:00:00;  -7.1;1020.7;   7.0; 270.0;  52.441;   4.750;   0.520;289;
75.6149;-177.6684;2; 389.964; 227.797;1968.05.13 12:00:00; -10.7;1023.2;   7.0; 270.0;  55.563;   5.000;   0.520;289;
75.6240;-177.7753;2; 389.876; 228.091;1968.05.13 18:00:00; -10.8;1023.9;   7.0; 270.0;  58.684;   5.250;   0.520;289;
75.6330;-177.8824;2; 389.788; 228.386;1968.05.14 00:00:00;  -9.7;1024.6;   6.0; 270.0;  61.806;   5.500;   0.520;289;
75.6421;-177.9897;2; 389.700; 228.681;1968.05.14 06:00:00;  -9.8;1024.8;   5.0; 270.0;  64.929;   5.750;   0.520;289;
75.6510;-178.0970;2; 389.612; 228.975;1968.05.14 12:00:00; -11.9;1024.2;   4.0; 270.0;  68.050;   6.000;   0.520;289;
75.6544;-178.1113;2; 389.576; 229.016;1968.05.14 18:00:00; -12.7;1022.1;   2.0; 200.0;  68.596;   6.250;   0.091;314;
75.6578;-178.1257;2; 389.540; 229.056;1968.05.15 00:00:00; -10.7;1016.8;   6.0; 140.0;  69.141;   6.500;   0.091;314;
75.6611;-178.1401;2; 389.505; 229.096;1968.05.15 06:00:00;  -5.0;1008.8;   7.0; 140.0;  69.687;   6.750;   0.091;313;
75.6645;-178.1544;2; 389.469; 229.136;1968.05.15 12:00:00;  -3.1;1004.3;   3.0; 270.0;  70.232;   7.000;   0.091;314;
75.6679;-178.1688;2; 389.433; 229.176;1968.05.15 18:00:00;  -7.1;1006.5;  10.0;  20.0;  70.777;   7.250;   0.091;313;
75.6713;-178.1832;2; 389.397; 229.216;1968.05.16 00:00:00; -10.1;1013.3;  12.0; 360.0;  71.323;   7.500;   0.091;314;
75.6746;-178.1976;2; 389.362; 229.257;1968.05.16 06:00:00; -10.6;1018.7;   9.0; 360.0;  71.868;   7.750;   0.091;313;
75.6780;-178.2120;2; 389.326; 229.297;1968.05.16 12:00:00; -11.1;1020.8;   6.0; 320.0;  72.414;   8.000;   0.091;313;
75.6723;-178.2309;2; 389.391; 229.346;1968.05.16 18:00:00; -12.8;1022.3;   4.0; 320.0;  73.238;   8.250;   0.137;219;
75.6665;-178.2498;2; 389.455; 229.396;1968.05.17 00:00:00; -11.5;1022.9;   3.0; 230.0;  74.062;   8.500;   0.137;219;
75.6608;-178.2687;2; 389.520; 229.445;1968.05.17 06:00:00; -12.0;1021.9;   3.0; 180.0;  74.886;   8.750;   0.137;219;
75.6550;-178.2876;2; 389.584; 229.494;1968.05.17 12:00:00; -11.3;1019.2;   5.0; 160.0;  75.711;   9.000;   0.137;219;
75.6493;-178.3065;2; 389.649; 229.543;1968.05.17 18:00:00; -10.6;1016.1;   8.0; 160.0;  76.534;   9.250;   0.137;219;
75.6435;-178.3253;2; 389.713; 229.593;1968.05.18 00:00:00;  -8.8;1015.4;   7.0; 160.0;  77.359;   9.500;   0.137;219;
75.6378;-178.3442;2; 389.778; 229.642;1968.05.18 06:00:00;  -7.5;1016.0;   1.0; 110.0;  78.183;   9.750;   0.137;219;
75.6320;-178.3630;2; 389.842; 229.691;1968.05.18 12:00:00;  -8.9;1018.0;   3.0; 360.0;  79.006;  10.000;   0.137;219;
75.6255;-178.3339;2; 389.911; 229.610;1968.05.18 18:00:00;  -9.9;1021.3;   6.0; 320.0;  80.086;  10.250;   0.180;132;
75.6190;-178.3048;2; 389.980; 229.529;1968.05.19 00:00:00;  -9.0;1025.7;   4.0; 340.0;  81.166;  10.500;   0.180;132;
75.6125;-178.2758;2; 390.048; 229.448;1968.05.19 06:00:00; -10.0;1028.7;   3.0; 360.0;  82.244;  10.750;   0.180;132;
75.6060;-178.2468;2; 390.117; 229.367;1968.05.19 12:00:00; -14.4;1030.9;   2.0;  20.0;  83.324;  11.000;   0.180;132;
75.5995;-178.2178;2; 390.186; 229.286;1968.05.19 18:00:00; -16.4;1031.9;   2.0;  90.0;  84.403;  11.250;   0.180;132;
75.5930;-178.1888;2; 390.255; 229.205;1968.05.20 00:00:00; -11.2;1032.1;   3.0; 110.0;  85.483;  11.500;   0.180;132;
75.5865;-178.1599;2; 390.323; 229.123;1968.05.20 06:00:00; -10.7;1031.7;   4.0; 110.0;  86.562;  11.750;   0.180;132;
75.5800;-178.1310;2; 390.392; 229.042;1968.05.20 12:00:00; -16.8;1031.8;   4.0; 110.0;  87.641;  12.000;   0.180;132;
75.5880;-178.1523;2; 390.306; 229.103;1968.05.20 18:00:00; -14.2;1031.1;   3.0; 140.0;  88.709;  12.250;   0.178;327;
75.5960;-178.1736;2; 390.221; 229.164;1968.05.21 00:00:00;  -8.9;1029.7;   5.0; 160.0;  89.776;  12.500;   0.178;326;
75.6040;-178.1949;2; 390.135; 229.225;1968.05.21 06:00:00;  -7.2;1025.8;   7.0; 180.0;  90.845;  12.750;   0.178;326;
75.6120;-178.2163;2; 390.049; 229.286;1968.05.21 12:00:00;  -6.8;1022.2;   7.0; 180.0;  91.912;  13.000;   0.178;326;
75.6200;-178.2377;2; 389.963; 229.347;1968.05.21 18:00:00;  -3.7;1018.5;   8.0; 200.0;  92.980;  13.250;   0.178;326;
75.6280;-178.2591;2; 389.877; 229.408;1968.05.22 00:00:00;  -1.4;1012.6;  10.0; 200.0;  94.048;  13.500;   0.178;326;
75.6360;-178.2805;2; 389.792; 229.469;1968.05.22 06:00:00;  -2.3;1011.9;  14.0; 290.0;  95.115;  13.750;   0.178;326;
75.6440;-178.3020;2; 389.706; 229.530;1968.05.22 12:00:00;  -5.8;1015.6;   9.0; 270.0;  96.183;  14.000;   0.178;326;
75.6434;-178.3425;2; 389.716; 229.639;1968.05.22 18:00:00;  -7.2;1017.3;   8.0; 270.0;  97.302;  14.250;   0.187;267;
75.6428;-178.3830;2; 389.725; 229.749;1968.05.23 00:00:00;  -5.7;1016.4;   8.0; 270.0;  98.421;  14.500;   0.187;267;
75.6422;-178.4235;2; 389.735; 229.859;1968.05.23 06:00:00;  -5.6;1016.1;   6.0; 290.0;  99.540;  14.750;   0.186;267;
75.6416;-178.4640;2; 389.745; 229.969;1968.05.23 12:00:00;  -6.1;1017.7;   6.0; 290.0; 100.659;  15.000;   0.186;266;
75.6409;-178.5045;2; 389.755; 230.079;1968.05.23 18:00:00;  -7.4;1018.8;   5.0; 320.0; 101.778;  15.250;   0.186;266;
75.6403;-178.5450;2; 389.765; 230.188;1968.05.24 00:00:00;  -7.9;1019.8;   5.0; 320.0; 102.897;  15.500;   0.187;266;
75.6396;-178.5855;2; 389.774; 230.298;1968.05.24 06:00:00;  -7.6;1019.3;   2.0; 180.0; 104.016;  15.750;   0.187;266;
75.6390;-178.6260;2; 389.784; 230.408;1968.05.24 12:00:00;  -8.3;1016.6;   6.0; 140.0; 105.134;  16.000;   0.186;266;
75.6382;-178.5877;2; 389.791; 230.304;1968.05.24 18:00:00;  -7.6;1013.1;  10.0; 140.0; 106.194;  16.250;   0.177; 95;
75.6373;-178.5495;2; 389.798; 230.200;1968.05.25 00:00:00;  -5.3;1006.7;  10.0; 140.0; 107.254;  16.500;   0.177; 95;
75.6364;-178.5112;2; 389.805; 230.095;1968.05.25 06:00:00;  -4.0;1002.3;  12.0; 160.0; 108.313;  16.750;   0.177; 95;
75.6356;-178.4730;2; 389.811; 229.991;1968.05.25 12:00:00;  -2.8; 999.8;  10.0; 160.0; 109.373;  17.000;   0.177; 95;
75.6347;-178.4347;2; 389.818; 229.887;1968.05.25 18:00:00;  -2.5; 998.1;   9.0; 180.0; 110.433;  17.250;   0.177; 95;
75.6338;-178.3965;2; 389.825; 229.783;1968.05.26 00:00:00;  -1.4; 996.8;   8.0; 160.0; 111.492;  17.500;   0.177; 95;
75.6329;-178.3582;2; 389.832; 229.679;1968.05.26 06:00:00;   0.1; 998.7;   5.0; 200.0; 112.552;  17.750;   0.177; 95;
75.6320;-178.3200;2; 389.839; 229.575;1968.05.26 12:00:00;  -2.9;1002.7;   5.0; 200.0; 113.612;  18.000;   0.177; 95;
75.6417;-178.3061;2; 389.731; 229.540;1968.05.26 18:00:00;  -4.5;1004.4;   5.0; 180.0; 114.761;  18.250;   0.192; 20;
75.6515;-178.2921;2; 389.623; 229.505;1968.05.27 00:00:00;  -3.3;1006.9;   7.0; 230.0; 115.913;  18.500;   0.192; 19;
75.6613;-178.2781;2; 389.515; 229.470;1968.05.27 06:00:00;  -3.9;1009.4;   3.0; 230.0; 117.064;  18.750;   0.192; 20;
75.6710;-178.2641;2; 389.407; 229.436;1968.05.27 12:00:00;  -4.5;1011.6;   3.0; 180.0; 118.214;  19.000;   0.192; 20;
75.6808;-178.2501;2; 389.299; 229.401;1968.05.27 18:00:00;  -4.5;1013.1;   3.0; 180.0; 119.365;  19.250;   0.192; 20;
75.6905;-178.2361;2; 389.191; 229.366;1968.05.28 00:00:00;  -2.0;1014.1;   0.0;   0.0; 120.515;  19.500;   0.192; 20;
75.7002;-178.2221;2; 389.083; 229.332;1968.05.28 06:00:00;  -3.9;1014.2;   3.0; 180.0; 121.665;  19.750;   0.192; 20;
75.7100;-178.2080;2; 388.975; 229.297;1968.05.28 12:00:00;  -5.4;1013.2;   4.0; 140.0; 122.816;  20.000;   0.192; 20;
75.7230;-178.2168;2; 388.834; 229.325;1968.05.28 18:00:00;  -5.3;1011.4;   4.0;  70.0; 124.281;  20.250;   0.244;350;
75.7360;-178.2256;2; 388.692; 229.353;1968.05.29 00:00:00;  -3.9;1009.6;   3.0;  50.0; 125.747;  20.500;   0.244;350;
75.7490;-178.2345;2; 388.551; 229.382;1968.05.29 06:00:00;  -3.0;1008.1;   3.0; 360.0; 127.213;  20.750;   0.244;350;
75.7620;-178.2434;2; 388.409; 229.410;1968.05.29 12:00:00;  -4.8;1008.4;   5.0;  20.0; 128.679;  21.000;   0.244;350;
75.7750;-178.2522;2; 388.267; 229.438;1968.05.29 18:00:00;  -5.0;1008.5;   6.0; 360.0; 130.145;  21.250;   0.244;350;
75.7880;-178.2612;2; 388.126; 229.466;1968.05.30 00:00:00;  -3.8;1008.6;   4.0; 360.0; 131.610;  21.500;   0.244;350;
75.8010;-178.2701;2; 387.984; 229.495;1968.05.30 06:00:00;  -4.2;1008.7;   4.0; 360.0; 133.076;  21.750;   0.244;350;
75.8140;-178.2790;2; 387.843; 229.523;1968.05.30 12:00:00;  -5.3;1009.7;   2.0; 270.0; 134.542;  22.000;   0.244;350;
75.8225;-178.2550;2; 387.748; 229.461;1968.05.30 18:00:00;  -4.9;1009.8;   3.0; 140.0; 135.692;  22.250;   0.192; 35;
75.8310;-178.2309;2; 387.653; 229.400;1968.05.31 00:00:00;  -2.2;1008.7;   6.0; 180.0; 136.843;  22.500;   0.192; 35;
75.8395;-178.2068;2; 387.557; 229.338;1968.05.31 06:00:00;  -1.9;1008.5;   7.0; 180.0; 137.994;  22.750;   0.192; 35;
75.8480;-178.1827;2; 387.462; 229.277;1968.05.31 12:00:00;  -3.7;1008.4;   8.0; 160.0; 139.144;  23.000;   0.192; 35;
75.8565;-178.1586;2; 387.367; 229.215;1968.05.31 18:00:00;  -5.3;1006.7;   9.0; 140.0; 140.294;  23.250;   0.192; 35;
75.8650;-178.1344;2; 387.272; 229.153;1968.06.01 00:00:00;  -3.4;1003.4;  10.0; 110.0; 141.445;  23.500;   0.192; 35;
75.8735;-178.1102;2; 387.177; 229.092;1968.06.01 06:00:00;  -1.4;1000.0;  12.0; 140.0; 142.595;  23.750;   0.192; 35;
75.8820;-178.0860;2; 387.082; 229.030;1968.06.01 12:00:00;  -2.8; 997.4;   5.0; 230.0; 143.746;  24.000;   0.192; 35;
75.8905;-178.0938;2; 386.990; 229.054;1968.06.01 18:00:00;  -5.7; 996.9;   7.0; 180.0; 144.715;  24.250;   0.161;347;
75.8990;-178.1017;2; 386.897; 229.078;1968.06.02 00:00:00;  -2.4; 997.4;  11.0; 180.0; 145.683;  24.500;   0.161;347;
75.9075;-178.1095;2; 386.805; 229.102;1968.06.02 06:00:00;  -1.3; 999.8;  10.0; 180.0; 146.652;  24.750;   0.161;347;
75.9160;-178.1174;2; 386.713; 229.126;1968.06.02 12:00:00;  -3.4;1002.8;   6.0; 200.0; 147.621;  25.000;   0.161;347;
75.9245;-178.1253;2; 386.620; 229.150;1968.06.02 18:00:00;  -4.0;1004.7;   7.0; 200.0; 148.590;  25.250;   0.161;347;
75.9330;-178.1332;2; 386.528; 229.174;1968.06.03 00:00:00;  -3.5;1006.7;   7.0; 180.0; 149.559;  25.500;   0.161;347;
75.9415;-178.1411;2; 386.436; 229.198;1968.06.03 06:00:00;  -3.1;1009.2;   6.0; 200.0; 150.527;  25.750;   0.161;347;
75.9500;-178.1490;2; 386.344; 229.222;1968.06.03 12:00:00;  -4.1;1011.1;   2.0; 250.0; 151.496;  26.000;   0.161;347;
75.9568;-178.1144;2; 386.266; 229.133;1968.06.03 18:00:00;  -4.1;1011.5;   1.0; 340.0; 152.696;  26.250;   0.200; 51;
75.9635;-178.0797;2; 386.189; 229.043;1968.06.04 00:00:00;  -3.3;1010.8;   3.0;  70.0; 153.896;  26.500;   0.200; 51;
75.9703;-178.0450;2; 386.112; 228.954;1968.06.04 06:00:00;  -4.5;1008.7;   2.0;  50.0; 155.096;  26.750;   0.200; 51;
75.9770;-178.0103;2; 386.035; 228.864;1968.06.04 12:00:00;  -5.4;1007.7;   2.0; 270.0; 156.297;  27.000;   0.200; 51;
75.9838;-177.9755;2; 385.958; 228.775;1968.06.04 18:00:00;  -5.1;1007.2;   5.0; 180.0; 157.496;  27.250;   0.200; 51;
75.9905;-177.9407;2; 385.881; 228.685;1968.06.05 00:00:00;  -4.7;1003.8;   9.0; 160.0; 158.696;  27.500;   0.200; 51;
75.9973;-177.9059;2; 385.804; 228.595;1968.06.05 06:00:00;  -1.8; 994.2;   8.0; 180.0; 159.896;  27.750;   0.200; 51;
76.0040;-177.8710;2; 385.727; 228.506;1968.06.05 12:00:00;  -4.9;1001.8;  12.0; 250.0; 161.096;  28.000;   0.200; 51;
76.0039;-177.8302;2; 385.724; 228.398;1968.06.05 18:00:00;  -4.6;1008.9;  10.0; 230.0; 162.192;  28.250;   0.183; 91;
76.0038;-177.7895;2; 385.721; 228.290;1968.06.06 00:00:00;  -3.7;1010.9;   7.0; 230.0; 163.288;  28.500;   0.183; 91;
76.0037;-177.7487;2; 385.718; 228.182;1968.06.06 06:00:00;  -3.9;1011.3;   7.0; 230.0; 164.384;  28.750;   0.183; 91;
76.0036;-177.7080;2; 385.715; 228.074;1968.06.06 12:00:00;  -5.5;1011.7;   4.0; 200.0; 165.480;  29.000;   0.183; 91;
76.0034;-177.6672;2; 385.712; 227.967;1968.06.06 18:00:00;  -5.7;1013.4;   5.0; 230.0; 166.576;  29.250;   0.183; 91;
76.0033;-177.6265;2; 385.709; 227.859;1968.06.07 00:00:00;  -4.1;1015.3;   8.0; 290.0; 167.672;  29.500;   0.183; 91;
76.0032;-177.5857;2; 385.706; 227.751;1968.06.07 06:00:00;  -5.0;1018.2;   6.0; 270.0; 168.768;  29.750;   0.183; 91;
76.0030;-177.5450;2; 385.704; 227.643;1968.06.07 12:00:00;  -7.7;1020.4;   5.0; 270.0; 169.864;  30.000;   0.183; 91;
75.9991;-177.5119;2; 385.742; 227.554;1968.06.07 18:00:00;  -4.9;1021.5;   5.0; 270.0; 170.852;  30.250;   0.165;116;
75.9953;-177.4789;2; 385.780; 227.464;1968.06.08 00:00:00;  -2.3;1021.3;   7.0; 230.0; 171.839;  30.500;   0.165;116;
75.9914;-177.4459;2; 385.819; 227.375;1968.06.08 06:00:00;   0.2;1021.4;   7.0; 230.0; 172.826;  30.750;   0.165;116;
75.9875;-177.4129;2; 385.857; 227.286;1968.06.08 12:00:00;  -2.5;1021.1;   9.0; 200.0; 173.814;  31.000;   0.165;116;
75.9837;-177.3799;2; 385.896; 227.197;1968.06.08 18:00:00;  -2.7;1020.0;  10.0; 230.0; 174.801;  31.250;   0.165;116;
75.9798;-177.3469;2; 385.934; 227.107;1968.06.09 00:00:00;  -0.4;1019.3;  11.0; 230.0; 175.788;  31.500;   0.165;116;
75.9759;-177.3139;2; 385.973; 227.018;1968.06.09 06:00:00;  -0.3;1019.5;  11.0; 230.0; 176.776;  31.750;   0.165;116;
75.9720;-177.2810;2; 386.011; 226.929;1968.06.09 12:00:00;  -2.6;1021.8;   5.0; 230.0; 177.764;  32.000;   0.165;116;
75.9723;-177.2115;2; 385.999; 226.745;1968.06.09 18:00:00;  -3.1;1021.4;   5.0; 230.0; 179.637;  32.250;   0.312; 89;
75.9726;-177.1420;2; 385.986; 226.561;1968.06.10 00:00:00;   0.3;1022.0;   6.0; 230.0; 181.510;  32.500;   0.312; 89;
75.9729;-177.0725;2; 385.974; 226.377;1968.06.10 06:00:00;   0.9;1022.3;   5.0; 230.0; 183.384;  32.750;   0.312; 89;
75.9732;-177.0030;2; 385.961; 226.193;1968.06.10 12:00:00;  -0.9;1023.4;   6.0; 230.0; 185.257;  33.000;   0.312; 89;
75.9734;-176.9335;2; 385.949; 226.009;1968.06.10 18:00:00;  -1.3;1024.4;   6.0; 230.0; 187.130;  33.250;   0.312; 89;
75.9736;-176.8640;2; 385.937; 225.825;1968.06.11 00:00:00;   1.3;1025.3;   2.0; 200.0; 189.003;  33.500;   0.312; 89;
75.9738;-176.7945;2; 385.924; 225.641;1968.06.11 06:00:00;   0.8;1025.8;   2.0; 180.0; 190.877;  33.750;   0.312; 89;
75.9740;-176.7250;2; 385.912; 225.456;1968.06.11 12:00:00;  -1.9;1025.6;   4.0; 160.0; 192.750;  34.000;   0.312; 89;
75.9799;-176.6909;2; 385.842; 225.370;1968.06.11 18:00:00;  -0.8;1024.9;   4.0; 160.0; 193.879;  34.250;   0.188; 55;
75.9858;-176.6567;2; 385.773; 225.283;1968.06.12 00:00:00;   0.9;1024.1;   4.0; 110.0; 195.009;  34.500;   0.188; 55;
75.9917;-176.6225;2; 385.703; 225.196;1968.06.12 06:00:00;   0.3;1021.7;   5.0; 110.0; 196.139;  34.750;   0.188; 55;
75.9975;-176.5882;2; 385.634; 225.110;1968.06.12 12:00:00;  -1.7;1020.4;   5.0; 140.0; 197.269;  35.000;   0.188; 55;
76.0034;-176.5540;2; 385.564; 225.023;1968.06.12 18:00:00;  -1.7;1019.2;   4.0; 160.0; 198.398;  35.250;   0.188; 55;
76.0093;-176.5197;2; 385.494; 224.936;1968.06.13 00:00:00;  -1.8;1018.2;   3.0; 160.0; 199.528;  35.500;   0.188; 55;
76.0151;-176.4854;2; 385.425; 224.849;1968.06.13 06:00:00;  -1.8;1017.0;   1.0; 180.0; 200.657;  35.750;   0.188; 55;
76.0210;-176.4510;2; 385.355; 224.763;1968.06.13 12:00:00;  -3.7;1016.3;   3.0;  50.0; 201.787;  36.000;   0.188; 55;
76.0326;-176.4862;2; 385.234; 224.863;1968.06.13 18:00:00;  -3.6;1016.4;   2.0;  50.0; 203.389;  36.250;   0.267;324;
76.0443;-176.5214;2; 385.112; 224.964;1968.06.14 00:00:00;  -2.0;1017.0;   3.0;  20.0; 204.992;  36.500;   0.267;324;
76.0559;-176.5567;2; 384.991; 225.065;1968.06.14 06:00:00;  -1.9;1017.6;   3.0;  20.0; 206.594;  36.750;   0.267;324;
76.0675;-176.5920;2; 384.869; 225.165;1968.06.14 12:00:00;  -2.2;1017.6;   4.0;  20.0; 208.197;  37.000;   0.267;324;
76.0792;-176.6274;2; 384.748; 225.266;1968.06.14 18:00:00;  -2.4;1017.2;   4.0;  20.0; 209.799;  37.250;   0.267;324;
76.0908;-176.6629;2; 384.626; 225.366;1968.06.15 00:00:00;  -1.0;1016.6;   5.0;  20.0; 211.402;  37.500;   0.267;324;
76.1024;-176.6984;2; 384.505; 225.467;1968.06.15 06:00:00;  -1.5;1016.0;   5.0;  20.0; 213.004;  37.750;   0.267;324;
76.1140;-176.7340;2; 384.383; 225.568;1968.06.15 12:00:00;  -2.3;1015.4;   6.0; 360.0; 214.607;  38.000;   0.267;324;
76.1096;-176.7912;2; 384.440; 225.715;1968.06.15 18:00:00;  -2.5;1015.7;   4.0; 360.0; 216.213;  38.250;   0.268;252;
76.1051;-176.8485;2; 384.498; 225.863;1968.06.16 00:00:00;  -1.1;1016.8;   4.0;  20.0; 217.819;  38.500;   0.268;252;
76.1006;-176.9057;2; 384.555; 226.010;1968.06.16 06:00:00;  -1.3;1017.9;   1.0; 360.0; 219.426;  38.750;   0.268;252;
76.0961;-176.9628;2; 384.612; 226.157;1968.06.16 12:00:00;  -2.5;1018.8;   1.0; 290.0; 221.032;  39.000;   0.268;252;
76.0916;-177.0199;2; 384.669; 226.305;1968.06.16 18:00:00;  -2.1;1018.3;   2.0; 270.0; 222.638;  39.250;   0.268;252;
76.0871;-177.0770;2; 384.726; 226.452;1968.06.17 00:00:00;  -1.4;1017.9;   4.0; 250.0; 224.244;  39.500;   0.268;252;
76.0826;-177.1340;2; 384.783; 226.600;1968.06.17 06:00:00;  -1.3;1016.0;   4.0; 230.0; 225.851;  39.750;   0.268;252;
76.0780;-177.1910;2; 384.840; 226.747;1968.06.17 12:00:00;  -0.5;1014.9;   4.0; 250.0; 227.457;  40.000;   0.268;252;
76.0776;-177.1880;2; 384.844; 226.739;1968.06.17 18:00:00;   0.2;1014.0;   4.0; 270.0; 227.547;  40.250;   0.015;117;
76.0772;-177.1850;2; 384.848; 226.731;1968.06.18 00:00:00;   0.1;1014.4;   2.0; 290.0; 227.638;  40.500;   0.015;118;
76.0769;-177.1820;2; 384.852; 226.723;1968.06.18 06:00:00;  -0.4;1013.9;   3.0; 270.0; 227.728;  40.750;   0.015;117;
76.0765;-177.1790;2; 384.855; 226.715;1968.06.18 12:00:00;  -0.1;1013.0;   1.0; 270.0; 227.819;  41.000;   0.015;118;
76.0761;-177.1760;2; 384.859; 226.707;1968.06.18 18:00:00;   0.4;1013.1;   0.0;   0.0; 227.909;  41.250;   0.015;117;
76.0758;-177.1730;2; 384.863; 226.698;1968.06.19 00:00:00;   0.4;1013.3;   2.0;  20.0; 228.000;  41.500;   0.015;118;
76.0754;-177.1700;2; 384.866; 226.690;1968.06.19 06:00:00;  -1.3;1013.7;   3.0;  20.0; 228.090;  41.750;   0.015;117;
76.0750;-177.1670;2; 384.870; 226.682;1968.06.19 12:00:00;  -0.3;1014.5;   4.0;  20.0; 228.181;  42.000;   0.015;118;
76.0750;-177.1821;2; 384.872; 226.722;1968.06.19 18:00:00;  -0.3;1016.0;   5.0;  70.0; 228.585;  42.250;   0.067;270;
76.0750;-177.1972;2; 384.874; 226.762;1968.06.20 00:00:00;  -0.3;1018.2;   4.0;  20.0; 228.990;  42.500;   0.067;270;
76.0750;-177.2124;2; 384.876; 226.802;1968.06.20 06:00:00;  -0.9;1019.6;   2.0;  20.0; 229.395;  42.750;   0.068;270;
76.0750;-177.2275;2; 384.878; 226.841;1968.06.20 12:00:00;  -4.1;1020.6;   2.0; 360.0; 229.800;  43.000;   0.067;270;
76.0750;-177.2426;2; 384.880; 226.881;1968.06.20 18:00:00;  -2.7;1019.7;   2.0; 320.0; 230.204;  43.250;   0.067;270;
76.0750;-177.2577;2; 384.882; 226.921;1968.06.21 00:00:00;  -0.8;1019.3;   3.0; 320.0; 230.609;  43.500;   0.067;270;
76.0750;-177.2729;2; 384.884; 226.961;1968.06.21 06:00:00;  -1.3;1017.7;   3.0; 320.0; 231.014;  43.750;   0.068;270;
76.0750;-177.2880;2; 384.886; 227.001;1968.06.21 12:00:00;  -1.5;1015.9;   3.0; 290.0; 231.419;  44.000;   0.067;270;
76.0751;-177.2844;2; 384.884; 226.991;1968.06.21 18:00:00;  -1.8;1014.9;   3.0; 270.0; 231.517;  44.250;   0.016; 82;
76.0752;-177.2807;2; 384.882; 226.982;1968.06.22 00:00:00;   0.2;1014.7;   3.0; 290.0; 231.615;  44.500;   0.016; 82;
76.0754;-177.2771;2; 384.880; 226.972;1968.06.22 06:00:00;   0.2;1014.8;   2.0; 320.0; 231.713;  44.750;   0.016; 82;
76.0755;-177.2735;2; 384.878; 226.963;1968.06.22 12:00:00;  -1.0;1015.5;   2.0; 270.0; 231.811;  45.000;   0.016; 82;
76.0756;-177.2699;2; 384.876; 226.953;1968.06.22 18:00:00;  -0.1;1015.8;   2.0;  50.0; 231.909;  45.250;   0.016; 82;
76.0758;-177.2663;2; 384.875; 226.944;1968.06.23 00:00:00;   0.3;1016.9;   4.0;  50.0; 232.006;  45.500;   0.016; 82;
76.0759;-177.2626;2; 384.873; 226.934;1968.06.23 06:00:00;   0.1;1017.4;   4.0;  50.0; 232.105;  45.750;   0.016; 82;
76.0760;-177.2590;2; 384.871; 226.925;1968.06.23 12:00:00;  -0.3;1018.5;   4.0;  50.0; 232.203;  46.000;   0.016; 83;
76.0697;-177.3366;2; 384.949; 227.126;1968.06.23 18:00:00;  -0.6;1019.3;   6.0;  50.0; 234.395;  46.250;   0.365;251;
76.0634;-177.4142;2; 385.028; 227.327;1968.06.24 00:00:00;   0.1;1020.5;   4.0;  50.0; 236.587;  46.500;   0.365;251;
76.0571;-177.4917;2; 385.106; 227.528;1968.06.24 06:00:00;  -0.4;1020.7;   4.0; 360.0; 238.778;  46.750;   0.365;251;
76.0507;-177.5691;2; 385.185; 227.729;1968.06.24 12:00:00;  -2.5;1020.5;   5.0; 320.0; 240.970;  47.000;   0.365;251;
76.0443;-177.6464;2; 385.263; 227.930;1968.06.24 18:00:00;  -1.8;1018.8;   5.0; 340.0; 243.162;  47.250;   0.365;251;
76.0379;-177.7237;2; 385.341; 228.131;1968.06.25 00:00:00;  -1.5;1018.5;   6.0; 360.0; 245.354;  47.500;   0.365;251;
76.0315;-177.8009;2; 385.420; 228.332;1968.06.25 06:00:00;  -1.5;1018.2;   6.0; 360.0; 247.546;  47.750;   0.365;251;
76.0250;-177.8780;2; 385.498; 228.533;1968.06.25 12:00:00;  -3.1;1017.4;   7.0; 360.0; 249.737;  48.000;   0.365;251;
76.0092;-177.9456;2; 385.677; 228.705;1968.06.25 18:00:00;  -0.4;1017.3;   9.0; 360.0; 252.266;  48.250;   0.421;226;
75.9934;-178.0132;2; 385.857; 228.878;1968.06.26 00:00:00;  -1.1;1017.1;   9.0; 360.0; 254.794;  48.500;   0.421;226;
75.9775;-178.0805;2; 386.036; 229.051;1968.06.26 06:00:00;  -0.6;1015.6;   9.0; 360.0; 257.323;  48.750;   0.421;226;
75.9616;-178.1477;2; 386.216; 229.223;1968.06.26 12:00:00;  -0.7;1014.6;  10.0; 360.0; 259.853;  49.000;   0.422;226;
75.9458;-178.2148;2; 386.395; 229.396;1968.06.26 18:00:00;  -0.7;1014.4;   7.0;  20.0; 262.381;  49.250;   0.421;226;
75.9299;-178.2816;2; 386.575; 229.568;1968.06.27 00:00:00;   0.1;1014.3;   4.0;  20.0; 264.909;  49.500;   0.421;226;
75.9139;-178.3484;2; 386.754; 229.741;1968.06.27 06:00:00;   0.2;1014.6;   2.0;  70.0; 267.438;  49.750;   0.422;226;
75.8980;-178.4150;2; 386.934; 229.913;1968.06.27 12:00:00;  -2.6;1015.4;   3.0; 160.0; 269.966;  50.000;   0.421;225;